This demonstration page uses our WeatherBlox Daily Observations layout. Learn more.

38.88101, -77.10428

Hourly Observations for March 22, 2017

Temp ( °F °C ) Dew Point ( °F °C ) Humidity (%) Winds ( mph kmh ) Pressure ( in mb ) Visibility ( mi km ) Precip ( " mm )
12:52 am 00:52 Cloudy 57 13.9 38 3.3 49 49 W 5 7 29.91 1013 10 16.09344 0 0
1:52 am 01:52 Cloudy 59 15 39 3.9 48 48 W 6 9 29.91 1013 10 16.09344 0 0
2:52 am 02:52 Cloudy 58 14.4 39 3.9 50 50 WNW 12 19 29.91 1013 10 16.09344 0 0
3:52 am 03:52 Cloudy 57 13.9 37 2.8 47 47 NW 8 13 29.91 1013 10 16.09344 0 0
4:52 am 04:52 Cloudy 56 13.3 30 -1.1 37 37 NNW 17 28 29.94 1014 10 16.09344 0 0
5:52 am 05:52 Mostly Cloudy 52 11.1 26 -3.3 37 37 NW 15 24 30 1016 10 16.09344 0 0
6:52 am 06:52 Mostly Clear 46 7.8 26 -3.3 46 46 NW 22 35 30.06 1018 10 16.09344 0 0
7:52 am 07:52 Mostly Sunny 42 5.6 22 -5.6 45 45 NNW 24 39 30.12 1020 10 16.09344 0 0
8:52 am 08:52 Mostly Sunny 42 5.6 19 -7.2 40 40 NW 22 35 30.15 1021 10 16.09344 0 0
9:52 am 09:52 Mostly Sunny 41 5 16 -8.9 36 36 NW 23 37 30.21 1023 10 16.09344 0 0
10:52 am 10:52 Sunny 44 6.7 17 -8.3 34 34 NNW 24 39 30.24 1024 10 16.09344 0 0
11:52 am 11:52 Mostly Sunny 45 7.2 18 -7.8 34 34 NW 17 28 30.24 1024 10 16.09344 0 0
12:52 pm 12:52 Mostly Sunny 46 7.8 16 -8.9 30 30 NNW 24 39 30.27 1025 10 16.09344 0 0
1:52 pm 13:52 Mostly Sunny 47 8.3 16 -8.9 29 29 NW 20 31 30.27 1025 10 16.09344 0 0
2:52 pm 14:52 Sunny 49 9.4 13 -10.6 23 23 NNW 16 26 30.27 1025 10 16.09344 0 0
3:52 pm 15:52 Sunny 49 9.4 11 -11.7 21 21 NW 17 28 30.27 1025 10 16.09344 0 0
4:52 pm 16:52 Sunny 48 8.9 5 -15 17 17 N 17 28 30.3 1026 10 16.09344 0 0
5:52 pm 17:52 Sunny 47 8.3 6 -14.4 19 19 NW 18 30 30.3 1026 10 16.09344 0 0
6:52 pm 18:52 Sunny 45 7.2 4 -15.6 18 18 NW 17 28 30.33 1027 10 16.09344 0 0
7:52 pm 19:52 Clear 43 6.1 5 -15 21 21 NNW 16 26 30.36 1028 10 16.09344 0 0
8:52 pm 20:52 Clear 42 5.6 6 -14.4 22 22 N 14 22 30.42 1030 10 16.09344 0 0
9:52 pm 21:52 Clear 40 4.4 6 -14.4 24 24 N 12 19 30.45 1031 10 16.09344 0 0
10:52 pm 22:52 Clear 39 3.9 4 -15.6 23 23 N 13 20 30.48 1032 10 16.09344 0 0
11:52 pm 23:52 Clear 38 3.3 9 -12.8 30 30 NNE 9 15 30.48 1032 10 16.09344 0 0

Powered by AerisWeather